カタリナ-リニア彗星

C/2004 DZ61 ( Catalina-LINEAR )

English version
Home page
Updated on October 21, 2004

---------------------------------------------------------------------

・ プロフィール

発見日 2004年2月18日、19日
発見光度 19.3等
発見者 Catalina Sky Survey, Lincoln Laboratory Near-Earth Asteroid Research project

・ 軌道要素

Epoch 2004 June 4.0 TT = JDT 2453160.5
T 2004 May 26.85761 TT                                  MPC
q   2.0133524            (2000.0)            P               Q
z  +0.0219032      Peri.   44.46118     -0.74269070     +0.65962822
 +/-0.0000012      Node   172.79224     -0.42499638     -0.59741507
e   0.9559012      Incl.   66.81019     +0.51748295     +0.45605464

・ 星図

・ 光度変化

        m1 = 11.5 + 5 logΔ + 15 log r(t - 20)

---------------------------------------------------------------------

軌道要素はM.P.E.C. 2004-G34に掲載されたものです。
星図は StellaNavigator Ver.2.0 for Windows (アストロアーツ 編著 / アスキー出版局刊) で作成したものです。
光度グラフはComet for Windowsで作成したものです。

---------------------------------------------------------------------

Copyright(C) Seiichi Yoshida (comet@aerith.net). All rights reserved.